www.pogodaiklimat.ru

Погода и климат >> Архив погоды >> Канада >> Baker Lake Climate


ПОГОДА в Baker Lake Climate

  • Прогноз погоды в Baker Lake Climate
  • Монитор погоды в Baker Lake Climate
  • Климат города

АРХИВ ПОГОДЫ в Baker Lake Climate

Время (UTC), дата Ветер
(напр.,м/с)
 
Видим.   Явления Облачность Т
(С)
Тd
(С)
f
(%)
Тe
(С)
Тes
(С)
Комфортность P
(гПа)
Po
(гПа)
Тmin
(С)
Tmax
(С)
R
(мм)
S
(см)
00 19.03 штиль 0 н/о н/о -22.9 -26.1 75 -23 -23 1018.8 1011.8 -30.1 -21.7
03 19.03 ЮВ 1 н/о н/о -25.3 -28.5 75 -29 -29 1017.4 1010.4
06 19.03 В 10 н/о н/о -26.1 -29.3 74 -42 -42 опасность
обморожения
1015.7 1008.7 -30.1 -21.7 6
09 19.03 В 6 н/о н/о -25.5 -28.6 75 -38 -38 опасность
обморожения
1013.7 1006.8
12 19.03 штиль 0 н/о н/о -24.8 -28.0 75 -25 -25 1012.2 1005.3 -26.7 -21.7 2
15 19.03 СЗ 1 н/о н/о -22.3 -25.5 75 -26 -26 1010.9 1004.0
18 19.03 С 12 н/о н/о -21.8 -25.2 74 -37 -37 опасность
обморожения
1010.6 1003.7 -26.7 -21.2
21 19.03 С 14 н/о н/о -23.9 -27.5 72 -41 -41 опасность
обморожения
1008.9 1002.0
00 20.03 СЗ 16 н/о н/о -29.6 -33.5 69 -50 -50 опасность
обморожения
1009.7 1002.8 -29.6 -21.2
03 20.03 СЗ 18 н/о н/о -32.9 -37.1 66 -55 -55 опасность
обморожения
1012.0 1005.0
06 20.03 СЗ 17 н/о н/о -33.8 -38.0 66 -56 -56 опасность
обморожения
1013.5 1006.5 -33.8 -21.2 3
09 20.03 СЗ 16 н/о н/о -33.8 -38.0 66 -55 -55 опасность
обморожения
1014.9 1007.9
12 20.03 СЗ 16 н/о н/о -33.6 -37.8 66 -55 -55 опасность
обморожения
1016.6 1009.5 -34.1 -21.2 2
15 20.03 З 15 н/о н/о -32.4 -36.6 66 -53 -53 опасность
обморожения
1018.0 1010.9
18 20.03 З 17 н/о н/о -29.9 -33.8 69 -51 -51 опасность
обморожения
1017.9 1010.8 -34.1 -29.9
21 20.03 З 16 н/о н/о -28.2 -31.9 70 -48 -48 опасность
обморожения
1019.6 1012.5
00 21.03 З 13 н/о н/о -28.1 -31.7 71 -46 -46 опасность
обморожения
1021.6 1014.5 -34.1 -27.9
03 21.03 З 13 н/о н/о -28.5 -32.1 71 -47 -47 опасность
обморожения
1022.4 1015.3
06 21.03 З 14 н/о н/о -28.8 -32.6 70 -48 -48 опасность
обморожения
1023.1 1016.0 -34.1 -27.9 16
09 21.03 З 10 н/о н/о -29.7 -33.5 69 -46 -46 опасность
обморожения
1025.2 1018.1
12 21.03 З 4 н/о н/о -30.1 -34.8 63 -41 -41 опасность
обморожения
1026.3 1019.2 -30.4 -27.9 1
15 21.03 ЮЗ 3 н/о н/о -29.4 -34.4 62 -39 -39 опасность
обморожения
1025.7 1018.6
18 21.03 ЮЗ 6 н/о н/о -26.1 -30.8 65 -38 -38 опасность
обморожения
1024.6 1017.5 -31.0 -26.1
21 21.03 ЮЗ 6 н/о н/о -24.2 -29.4 62 -36 -36 опасность
обморожения
1023.1 1016.1
00 22.03 ЮЗ 2 н/о н/о -24.0 -28.4 67 -31 -31 опасность
обморожения
1021.8 1014.8 -31.0 -22.9
03 22.03 ЮЗ 3 н/о н/о -26.6 -30.3 71 -35 -35 опасность
обморожения
1021.0 1014.0
06 22.03 З 5 н/о н/о -26.2 -30.0 70 -38 -38 опасность
обморожения
1020.7 1013.7 -31.0 -22.9 8
09 22.03 З 5 н/о н/о -29.6 -33.3 70 -42 -42 опасность
обморожения
1020.7 1013.7
12 22.03 З 4 н/о н/о -30.1 -33.8 70 -42 -42 опасность
обморожения
1021.3 1014.3 -31.1 -22.9 2
15 22.03 З 3 н/о н/о -28.2 -32.7 65 -38 -38 опасность
обморожения
1021.2 1014.2
18 22.03 З 5 н/о н/о -25.9 -30.3 66 -38 -38 опасность
обморожения
1020.6 1013.6 -31.1 -25.8
21 22.03 З 3 н/о н/о -23.5 -27.8 68 -31 -31 опасность
обморожения
1020.0 1013.0
00 23.03 З 2 н/о н/о -23.7 -27.6 70 -29 -29 1018.7 1011.7 -31.1 -22.5
03 23.03 З 4 н/о н/о -27.9 -31.4 72 -38 -38 опасность
обморожения
1018.3 1011.3
06 23.03 З 7 н/о н/о -28.0 -31.4 73 -42 -42 опасность
обморожения
1017.2 1010.2 -31.1 -22.5 7
09 23.03 З 8 н/о н/о -28.6 -32.0 72 -43 -43 опасность
обморожения
1016.9 1009.9
12 23.03 СЗ 9 н/о н/о -29.7 -33.7 68 -46 -46 опасность
обморожения
1017.9 1010.9 -29.7 -22.5 1
15 23.03 З 9 н/о н/о -30.0 -34.4 65 -46 -46 опасность
обморожения
1019.4 1012.4
18 23.03 З 11 н/о н/о -28.5 -32.8 66 -46 -46 опасность
обморожения
1020.6 1013.6 -30.6 -27.2
21 23.03 З 9 н/о н/о -27.1 -31.1 69 -42 -42 опасность
обморожения
1022.2 1015.2
00 24.03 З 13 н/о н/о -26.9 -30.9 69 -44 -44 опасность
обморожения
1023.2 1016.1 -30.6 -26.6
03 24.03 З 7 н/о н/о -28.2 -32.3 68 -42 -42 опасность
обморожения
1025.1 1018.0
06 24.03 З 6 н/о н/о -30.1 -34.2 67 -44 -44 опасность
обморожения
1025.5 1018.4 -30.6 -26.6 1
09 24.03 З 6 н/о н/о -29.1 -33.1 68 -42 -42 опасность
обморожения
1026.2 1019.1
12 24.03 ЮВ 2 н/о н/о -28.9 -32.6 70 -36 -36 опасность
обморожения
1025.8 1018.7 -30.6 -26.6 2
15 24.03 СЗ 1 н/о н/о -26.9 -31.3 66 -31 -31 опасность
обморожения
1025.7 1018.6
18 24.03 З 2 н/о {осадки} н/о -24.9 -29.3 67 -32 -32 опасность
обморожения
1025.8 1018.7 -30.6 -24.8 6
21 24.03 З 4 н/о н/о -22.4 -26.2 71 -31 -31 опасность
обморожения
1025.6 1018.6
00 25.03 ЮЗ 2 н/о н/о -23.3 -27.0 72 -30 -30 1025.6 1018.6 -30.6 -20.4
03 25.03 З 1 н/о н/о -26.8 -30.3 72 -28 -28 1025.5 1018.5
06 25.03 ЮЗ 4 н/о н/о -26.9 -30.2 73 -37 -37 опасность
обморожения
1025.4 1018.4 -30.6 -20.4 6
09 25.03 СВ 2 н/о н/о -28.6 -32.0 72 -36 -36 опасность
обморожения
1025.4 1018.4
12 25.03 В 2 н/о н/о -30.7 -34.5 69 -37 -37 опасность
обморожения
1025.0 1018.0 -30.8 -20.4 1
15 25.03 В 4 н/о н/о -27.6 -31.2 71 -38 -38 опасность
обморожения
1023.5 1016.5
18 25.03 В 6 н/о н/о -23.7 -27.1 73 -36 -36 опасность
обморожения
1022.0 1015.0 -30.8 -23.7
21 25.03 В 5 н/о н/о -18.3 -21.8 74 -28 -28 1020.6 1013.6

 

Местоположение метеостанции Baker Lake Climate (Канада): широта 64.32 долгота -96.00 высота над уровнем моря 51 м.

В архиве по умолчанию представлена погода в Baker Lake Climate за последнюю неделю. Архивные данные за месяц целиком и за предыдущие месяцы, начиная с января 2011 года, Вы можете получить, выбрав интересующий диапазон дат из раскрывающегося списка и нажав кнопку "Ввод!".

Внимание! Время в таблицах - всемирное. Для получения местного времени необходимо прибавить поправку, которая в Baker Lake Climate равна -6 ч.

Смотрите также архив погоды в соседних городах и на ближайших метеорологических станциях:

Погода в Baker Lake Airport (Канада) (4 км)
Погода в Back River MAPS (Канада) (197 км)
Погода в Rankin Inlet (Канада) (255 км)
Погода в Dubawnt Lake (Канада) (305 км)
Погода в Robertson Lake (Канада) (316 км)
Погода в Wager Bay (Канада) (353 км)
Погода в Arviat Climate (Канада) (372 км)
Погода в Arviat (Канада) (372 км)
Погода в Arviat Airport (Канада) (372 км)
Погода в Hanbury River ARS (Канада) (454 км)

Пояснения к столбцам:

Ветер - указаны скорость ветра в м/с - средняя за 10 мин, порывы в срок и между сроками (в фигурных скобках) и направление, откуда дует ветер: С - северный, СВ - северо-восточный, В - восточный, ЮВ - юго-восточный, Ю - южный, ЮЗ - юго-западный, З - западный, СЗ - северо-западный.
Видимость - горизонтальная дальность видимости в метрах или километрах. При видимости от 1 до 10 км при отсутствии осадков обычно наблюдается дымка, при ухудшении видимости до 1 км и менее - туман. В сухую погоду видимость может ухудшаться дымом, пылью или мглою.
Явления - указаны атмосферные явления, наблюдавшиеся в срок или в последний час перед сроком; фигурными скобками обозначены явления, наблюдавшиеся между сроками (за 1-3 часа до срока); квадратными скобками обозначены град или гололедные отложения с указанием их диаметра в мм.
Облачность - указаны через наклонную черту общая и нижняя облачность в баллах и высота нижней границы облаков в метрах; квадратными скобками обозначены формы облаков: Ci - перистые, Cs - перисто-слоистые, Cc - перисто-кучевые, Ac - высококучевые, As - высокослоистые, Sc - слоисто-кучевые, Ns - слоисто-дождевые, Cu - кучевые, Cb - кучево-дождевые. Подробнее классификацию облаков см. в Атласе облаков (PDF).
T - Температура воздуха - температура, измеренная на высоте 2 м над землей.
Td - Температура точки росы - температура, при понижении до которой содержащийся в воздухе водяной пар достигнет насыщения.
f - Относительная влажность воздуха - влажноcть воздуха, измеренная на высоте 2 м над землей.
Te - Эффективная температура - температура, которую ощущает одетый по сезону человек в тени. Характеристика душности погоды. При расчете учитывается влияние влажности воздуха и скорости ветра на теплоощущения человека.
Tes - Эффективная температура на солнце - температура, которую ощущает человек, с поправкой на солнечный нагрев. Характеристика знойности погоды. Зависит от высоты солнца над горизонтом, облачности и скорости ветра. Ночью, в пасмурную погоду, а также при ветре 12 м/с и более поправка равна нулю.
P - Атмосферное давление - приведенное к уровню моря атмосферное давление.
Po - Атмосферное давление - измеренное на уровне метеостанции атмосферное давление.
Tmin - Минимальная температура - минимум температуры воздуха на высоте 2 м над землей.
Tmax - Максимальная температура - максимум температуры воздуха на высоте 2 м над землей.
R - Количество осадков - Количество выпавших осадков, мм. При наведении курсора мыши на число - период времени, за который выпало указанное количество осадков.
S - Снежный покров - Высота снежного покрова, см. При наведении курсора мыши на число - состояние снежного покрова и степень покрытия местности в баллах.